User: anonymous   Login
Location: Unspecified
(0.0000°N, 0.0000°E)
Time: 08:59:55
(UTC+00:00)
Language:

Cosmos 1703 - Orbit

View from above orbital plane
View from above orbital plane
View from above satellite
View from above satellite

Ground track
Ground track

The orbit data is extracted from the following two-line orbital elements,

1 16262U 85108A   18200.53490304 +.00001050 +00000-0 +61394-4 0  9991
2 16262 082.4770 219.5616 0011411 359.2730 000.8481 15.10783508778623
Epoch (UTC): 19 July 2018 12:50:15
Eccentricity: 0.0011411
inclination: 82.4770°
perigee height: 526 km
apogee height: 542 km
right ascension of ascending node: 219.5616°
argument of perigee: 359.2730°
revolutions per day: 15.10783508
mean anomaly at epoch: 0.8481°
orbit number at epoch: 77862

The dashed part of the orbit path shows where the satellite is in the earth's shadow,  

DLR